Flag for Ecuador Weather past 2 weeks in Guayaquil, Ecuador

Now
88 °F

Passing clouds.


Feels Like: 93 °F
Forecast: N/A
Wind: 9 mph from South

Location: Guayaquil / Simon Bolivar

Current Time: Jun 30, 2015 at 4:49:20 PM

Latest Report: Jun 30, 2015 at 4:00 PM


Visibility: N/A

Pressure: 29.71 "Hg

Humidity: 55%

Dew point: 70 °F

Location of GuayaquilLocation

Historic Weather in Guayaquil — Graph

°F

Guayaquil temperature yesterday

Maximum temperature yesterday: 84 °F (at 4:00 PM)
Minimum temperature yesterday: 75 °F (at 12:00 AM)
Average temperature yesterday: 79 °F

Past Weeks' High & Low Weather Summary

 TemperatureHumidityPressure
High91 °F (Jun 24, 2:00 PM)94% (Jun 17, 4:00 AM)29.89 "Hg (Jun 17, 4:00 AM)
Low73 °F (Jun 17, 4:00 AM)20% (Jun 20, 6:00 PM)29.65 "Hg (Jun 17, 3:00 PM)
Average80 °F73%29.79 "Hg
* Reported Jun 15 3:00 PM — Jun 30 3:00 PM, Guayaquil, Weather by CustomWeather, © 2015

Note: Actual official high and low records may vary slightly from our data, if they occured in-between our weather recording intervals... More about our weather records

Advertising

Guayaquil weather history for previous 24 hours

 ConditionsComfort  
Time TempWeatherWind HumidityBarometerVisibility
3:00 PM
Tue, Jun 30
88 °FPassing clouds.8 mph55%29.74 "HgN/A
2:00 PM88 °FPassing clouds.10 mph55%29.77 "HgN/A
1:00 PM86 °FPartly sunny.9 mph59%29.83 "HgN/A
10:00 AM82 °FPartly sunny.9 mph70%29.89 "HgN/A
9:00 AM81 °FPartly sunny.7 mph70%29.89 "HgN/A
8:00 AM79 °FPartly sunny.5 mph70%29.89 "HgN/A
7:00 AM79 °FPartly sunny.6 mph70%29.86 "HgN/A
6:00 AM75 °FPartly cloudy.5 mph78%29.83 "HgN/A
5:00 AM75 °FClear.6 mph78%29.83 "Hg10 mi
4:00 AM75 °FClear.3 mph74%29.83 "Hg10 mi
3:00 AM77 °FClear.8 mph69%29.83 "Hg10 mi
2:00 AM77 °FClear.7 mph74%29.83 "Hg10 mi
1:00 AM77 °FClear.7 mph79%29.86 "Hg10 mi
12:00 AM77 °FClear.6 mph79%29.86 "Hg10 mi
11:00 PM
Mon, Jun 29
79 °FPassing clouds.8 mph74%29.86 "HgN/A
10:00 PM79 °FClear.9 mph79%29.86 "Hg10 mi
9:00 PM81 °FClear.3 mph74%29.83 "Hg10 mi
8:00 PM81 °FClear.No wind74%29.80 "Hg10 mi
7:00 PM82 °FClear.2 mph70%29.80 "Hg10 mi
6:00 PM82 °FScattered clouds.6 mph66%29.77 "HgN/A
5:00 PM84 °FScattered clouds.2 mph66%29.77 "HgN/A
4:00 PM84 °FScattered clouds.3 mph62%29.77 "HgN/A
Weather by CustomWeather, © 2015

See weather overviewHow to use our weather pages